Volver al catálogo

STARLINK-37425

ActivoComunicacionesSSO
NORAD 68815·PAYLOAD·🇺🇸 United States

Lanzado Apr 23, 2026 desde Vandenberg Space Force Base

Loading…

Próximos Pases (próximas 24 horas)

TLE

ActualizadoSource: CelesTrak SupGP

Época: Sep 15, 2026, 04:26 UTC

1 68815C 26089P   26258.18520833 -.00050845  00000+0 -15782-2 0  2582
2 68815  97.2855 104.0328 0001905  90.3238 320.9265 15.33466977    13

Sigue STARLINK-37425 en tiempo real con AllMySat

Download on the App Store